Probability
0 0 0 0 0 0 0 0 0 0 0 0 0 0 0 0 0 0 0 0 0 0 0 0 0 0 0 0 0 0 0 0 0 0 0 0 0 0 0 0 0 0 0 0
0 0 0 0 0 0 0 0 0 0 0 0 0 0 0 0 0 0 0 0 0 0 0 0 0 0 0 0 0 0 0 0 0 0 0 0 0 0 0 0 0 0 0 0
0 0 0 0 0 0 0 0 0 0 0 0 0 0 0 0 0 0 0 0 0 0 0 0 0 0 0 0 0 0 0 0 0 0 0 0 0 0 0 0 0 0 0 0
0 0 0 0 0 0 0 0 0 0 0 0 0 0 0 0 0 0 0 0 0 0 0 0 0 0 0 0 0 0 0 0 0 0 0 0 0 0 0 0 0 0 0 0
0 0 0 0 0 0 0 0 0 0 0 0 0 0 0 0 0 0 0 0 0 0 0 0 0 0 0 0 0 0 0 0 0 0 0 0 0 0 0 0 0 0 0 0
0 0 0 0 0 0 0 0 0 0 0 0 0 0 0 0 0 0 0 0 0 0 0 0 0 0 0 0 0 0 0 0 0 0 0 0 0 0 0 0 0 0 0 0
0 0 0 0 0 0 0 0 0 0 0 0 0 0 0 0 0 0 0 0 0 0 0 0 0 0 0 0 0 0 0 0 0 0 0 0 0 0 0 0 0 0 0 0
0 0 0 0 0 0 0 0 0 0 0 0 0 0 0 0 0 0 0 0 0 0 0 0 0 0 0 0 0 0 0 0 0 0 0 0 0 0 0 0 0 0 0 0
0 0 0 0 0 0 0 0 0 0 0 0 0 0 0 0 0 0 0 0 0 0 0 0 0 0 0 0 0 0 0 0 0 0 0 0 0 0 0 0 0 0 0 0
0 0 0 0 0 0 0 0 0 0 0 0 0 0 0 0 0 0 0 0 0 0 0 0 0 0 0 0 0 0 0 0 0 0 0 0 0 0 0 0 0 0 0 0
0 0 0 0 0 0 0 0 0 0 0 0 0 0 0 0 0 0 0 0 0 0 0 0 0 0 0 0 0 0 0 0 0 0 0 0 0 0 0 0 0 0 0 0
0 0 0 0 0 0 0 0 0 0 0 0 0 0 0 0 0 0 0 0 0 0 0 0 0 0 0 0 0 0 0 0 0 0 0 0 0 0 0 0 0 0 0 0
0 0 0 0 0 0 0 0 0 0 0 0 0 0 0 0 0 0 0 0 0 0 0 0 0 0 0 0 0 0 0 0 0 0 0 0 0 0 0 0 0 0 0 0
0 0 0 0 0 0 0 0 0 0 0 0 0 0 0 0 0 0 0 0 0 0 0 0 0 0 0 0 0 0 0 0 0 0 0 0 0 0 0 0 0 0 0 0
0 0 0 0 0 0 0 0 0 0 0 0 0 0 0 0 0 0 0 0 0 0 0 0 0 0 0 0 0 0 0 0 0 0 0 0 0 0 0 0 0 0 0 0
0 0 0 0 0 0 0 0 0 0 0 0 0 0 0 0 0 0 0 0 0 0 0 0 0 0 0 0 0 0 0 0 0 0 0 0 0 0 0 0 0 0 0 0
0 0 0 0 0 0 0 0 0 0 0 0 0 0 0 0 0 0 0 0 0 0 0 0 0 0 0 0 0 0 0 0 0 0 0 0 0 0 0 0 0 0 0 0
0 0 0 0 0 0 0 0 0 0 0 0 0 0 0 0 0 0 0 0 0 0 0 0 0 0 0 0 0 0 0 0 0 0 0 0 0 0 0 0 0 0 0 0
0 0 0 0 0 0 0 0 0 0 0 0 0 0 0 0 0 0 0 0 0 0 0 0 0 0 0 0 0 0 0 0 0 0 0 0 0 0 0 0 0 0 0 0
0 0 0 0 0 0 0 0 0 0 0 0 0 0 0 0 0 0 0 0 0 0 0 0 0 0 0 0 0 0 0 0 0 0 0 0 0 0 0 0 0 0 0 0
0 0 0 0 0 0 0 0 0 0 0 0 0 0 0 0 0 0 0 0 0 0 0 0 0 0 0 0 0 0 0 0 0 0 0 0 0 0 0 0 0 0 0 0
0 0 0 0 0 0 0 0 0 0 0 0 0 0 0 0 0 0 0 0 0 0 0 0 0 0 0 0 0 0 0 0 0 0 0 0 0 0 0 0 0 0 0 0
0 0 0 0 0 0 0 0 0 0 0 0 0 0 0 0 0 0 0 0 0 0 0 0 0 0 0 0 0 0 0 0 0 0 0 0 0 0 0 0 0 0 0 0
0 0 0 0 0 0 0 0 0 0 0 0 0 0 0 0 0 0 0 0 0 0 0 0 0 0 0 0 0 0 0 0 0 0 0 0 0 0 0 0 0 0 0 0
0 0 0 0 0 0 0 0 0 0 0 0 0 0 0 0 0 0 0 0 0 0 0 0 0 0 0 0 0 0 0 0 0 0 0 0 0 0 0 0 0 0 0 0
0 0 0 0 0 0 0 0 0 0 0 0 0 0 0 0 0 0 0 0 0 0 0 0 0 0 0 0 0 0 0 0 0 0 0 0 0 0 0 0 0 0 0 0
0 0 0 0 0 0 0 0 0 0 0 0 0 0 0 0 0 0 0 0 0 0 0 0 0 0 0 0 0 0 0 0 0 0 0 0 0 0 0 0 0 0 0 0
Height
5842 5842 5842 5842 5842 5842 5842 5842 5841 5840 5839 5838 5837 5835 5834 5833 5832 5831 5830 5829 5828 5827 5826 5825 5824 5822 5821 5819 5817 5815 5813 5811 5809 5807 5805 5803 5801 5799 5797 5794 5792 5791 5789 5787
5841 5841 5841 5841 5840 5840 5839 5839 5838 5837 5836 5835 5833 5832 5830 5829 5828 5827 5826 5825 5824 5823 5822 5820 5819 5817 5815 5813 5811 5809 5807 5805 5803 5800 5798 5796 5794 5792 5790 5788 5786 5784 5783 5781
5840 5839 5839 5839 5839 5838 5837 5836 5835 5834 5834 5831 5830 5829 5827 5825 5824 5823 5821 5820 5819 5818 5816 5815 5813 5811 5809 5807 5805 5803 5800 5798 5795 5793 5791 5789 5787 5785 5783 5781 5779 5777 5776 5774
5837 5838 5837 5839 5836 5835 5834 5833 5832 5831 5830 5828 5827 5825 5823 5821 5820 5818 5817 5815 5814 5812 5810 5808 5806 5804 5802 5800 5797 5795 5792 5790 5787 5785 5782 5780 5778 5776 5774 5772 5770 5769 5767 5766
5835 5834 5835 5835 5833 5832 5831 5830 5829 5827 5826 5824 5822 5820 5819 5817 5815 5813 5811 5809 5807 5805 5803 5800 5798 5796 5793 5791 5788 5785 5783 5780 5777 5774 5772 5770 5767 5765 5763 5762 5760 5759 5757 5756
5832 5831 5831 5832 5830 5828 5828 5826 5825 5823 5821 5819 5817 5816 5814 5811 5809 5807 5805 5802 5800 5798 5795 5792 5790 5787 5784 5781 5778 5775 5772 5769 5766 5763 5760 5758 5755 5753 5751 5750 5749 5748 5747 5746
5827 5827 5827 5827 5825 5824 5824 5823 5820 5818 5816 5814 5812 5810 5808 5805 5802 5800 5797 5795 5792 5789 5786 5783 5780 5777 5773 5770 5766 5763 5759 5756 5753 5750 5747 5744 5742 5740 5738 5736 5735 5735 5734 5734
5822 5822 5824 5821 5819 5819 5818 5815 5814 5812 5810 5808 5805 5803 5800 5797 5795 5792 5789 5786 5783 5780 5777 5773 5769 5765 5761 5757 5753 5750 5746 5742 5739 5736 5733 5730 5727 5725 5723 5721 5721 5720 5720 5720
5818 5818 5816 5815 5814 5812 5811 5809 5807 5805 5803 5801 5798 5795 5792 5789 5786 5783 5780 5776 5773 5769 5765 5761 5757 5753 5748 5744 5740 5736 5732 5728 5724 5721 5717 5714 5712 5710 5708 5706 5705 5704 5704 5705
5810 5809 5809 5808 5806 5805 5804 5802 5800 5798 5795 5793 5790 5787 5784 5780 5777 5773 5769 5765 5762 5757 5753 5749 5744 5739 5735 5730 5725 5721 5717 5713 5709 5705 5702 5699 5696 5694 5691 5690 5689 5688 5688 5689
5802 5801 5800 5800 5798 5797 5796 5793 5791 5789 5786 5783 5781 5777 5774 5770 5766 5762 5758 5754 5749 5745 5740 5735 5730 5725 5720 5715 5710 5706 5701 5697 5694 5690 5686 5683 5680 5678 5676 5674 5672 5672 5672 5673
5793 5793 5792 5791 5790 5788 5786 5784 5782 5780 5777 5774 5771 5767 5763 5759 5755 5751 5746 5742 5737 5732 5727 5721 5716 5711 5705 5700 5695 5690 5686 5682 5678 5673 5670 5666 5663 5662 5660 5658 5657 5656 5656 5656
5784 5783 5782 5781 5780 5778 5776 5774 5772 5769 5767 5763 5760 5756 5752 5748 5743 5738 5733 5728 5723 5718 5712 5707 5701 5696 5691 5685 5680 5675 5670 5665 5661 5657 5653 5649 5646 5644 5643 5642 5641 5640 5640 5640
5773 5773 5772 5771 5769 5768 5766 5763 5761 5758 5755 5752 5748 5744 5740 5736 5731 5726 5720 5714 5709 5703 5698 5692 5687 5681 5675 5670 5664 5659 5654 5649 5644 5640 5636 5632 5629 5626 5624 5623 5623 5623 5623 5624
5763 5763 5762 5760 5758 5756 5754 5752 5750 5747 5743 5740 5736 5732 5727 5723 5718 5712 5707 5700 5695 5689 5683 5677 5672 5666 5660 5654 5649 5644 5638 5633 5628 5623 5619 5615 5612 5609 5607 5605 5604 5604 5605 5606
5752 5751 5750 5748 5747 5745 5743 5740 5738 5735 5731 5728 5723 5719 5714 5709 5704 5698 5693 5686 5680 5675 5668 5662 5657 5651 5645 5639 5633 5627 5622 5617 5611 5606 5602 5598 5595 5592 5590 5588 5586 5586 5587 5588
5739 5738 5737 5736 5735 5733 5730 5728 5725 5722 5718 5714 5710 5706 5701 5695 5690 5684 5678 5672 5666 5660 5653 5647 5641 5635 5629 5623 5616 5611 5606 5601 5596 5590 5586 5582 5578 5575 5572 5571 5570 5569 5570 5570
5726 5725 5724 5723 5722 5720 5717 5714 5711 5708 5704 5700 5696 5691 5686 5681 5675 5670 5664 5658 5651 5645 5638 5631 5625 5619 5613 5606 5600 5594 5589 5584 5579 5574 5570 5565 5561 5558 5555 5554 5553 5552 5553 5553
5713 5712 5711 5710 5708 5706 5703 5700 5697 5693 5689 5685 5681 5676 5671 5665 5660 5654 5648 5642 5636 5630 5623 5616 5609 5603 5596 5590 5584 5578 5573 5568 5563 5558 5554 5549 5545 5542 5538 5536 5535 5535 5535 5536
5699 5698 5697 5695 5693 5691 5688 5685 5682 5678 5674 5669 5665 5660 5655 5650 5644 5638 5633 5627 5620 5612 5606 5600 5593 5587 5580 5574 5568 5562 5557 5552 5547 5542 5537 5533 5529 5525 5522 5520 5518 5518 5518 5519
5685 5684 5682 5680 5678 5676 5673 5669 5666 5662 5658 5654 5649 5644 5639 5634 5628 5622 5616 5611 5604 5596 5590 5583 5576 5570 5564 5558 5552 5546 5541 5536 5531 5526 5521 5517 5513 5509 5506 5504 5502 5502 5502 5503
5670 5669 5667 5665 5662 5660 5656 5653 5649 5646 5642 5637 5632 5627 5622 5617 5612 5606 5599 5593 5587 5580 5573 5567 5561 5554 5548 5542 5537 5531 5526 5520 5515 5510 5506 5502 5498 5494 5491 5489 5487 5486 5487 5488
5654 5653 5651 5648 5646 5643 5640 5636 5632 5628 5624 5620 5615 5610 5605 5600 5594 5588 5583 5577 5570 5564 5557 5551 5545 5539 5533 5527 5522 5517 5511 5506 5501 5496 5492 5488 5484 5480 5477 5475 5473 5472 5472 5474
5636 5635 5633 5631 5628 5625 5622 5618 5614 5611 5607 5602 5597 5592 5587 5582 5577 5571 5565 5560 5554 5548 5542 5536 5530 5524 5518 5513 5508 5503 5498 5493 5488 5483 5479 5475 5471 5468 5465 5463 5461 5460 5460 5462
5619 5617 5615 5613 5610 5607 5604 5601 5597 5593 5589 5585 5580 5574 5569 5564 5560 5555 5549 5544 5538 5533 5527 5522 5517 5511 5505 5500 5495 5490 5485 5480 5475 5471 5467 5463 5459 5456 5454 5451 5450 5450 5450 5451
5601 5599 5597 5595 5592 5589 5586 5582 5579 5575 5571 5567 5563 5557 5552 5547 5543 5538 5533 5529 5524 5518 5513 5508 5503 5498 5492 5487 5483 5478 5473 5468 5463 5459 5455 5451 5448 5446 5443 5442 5440 5440 5441 5442
5582 5580 5578 5576 5573 5570 5567 5564 5560 5557 5553 5549 5546 5541 5536 5531 5527 5523 5518 5514 5510 5505 5500 5495 5490 5485 5480 5476 5471 5466 5462 5457 5453 5449 5445 5442 5439 5437 5434 5433 5432 5432 5432 5433
Wind_Speed
5 4 4 3 2 2 1 2 3 5 5 7 8 9 11 12 12 13 14 14 15 15 16 17 18 19 20 21 22 22 23 23 24 24 25 25 25 25 25 24 24 23 23 22
5 4 4 3 2 2 3 4 5 6 7 8 10 11 12 12 13 14 15 16 17 18 18 19 20 21 22 23 24 24 25 26 26 27 27 27 27 28 27 27 26 26 25 24
5 4 4 3 3 4 5 6 7 8 9 10 11 12 13 14 14 15 16 17 18 20 20 21 22 24 25 26 26 27 28 29 29 29 30 30 30 30 30 30 29 28 27 26
6 6 6 5 6 6 7 8 9 10 11 12 13 14 15 16 17 18 19 19 20 21 22 23 24 26 27 28 29 30 31 32 32 32 32 33 33 33 32 32 32 31 30 29
7 8 7 7 8 9 9 9 10 12 13 14 15 16 18 19 20 21 21 22 24 25 26 27 28 29 30 32 33 34 35 35 36 36 35 36 36 35 35 35 34 34 33 32
10 10 10 10 10 11 12 12 13 14 16 17 18 19 20 21 23 24 25 26 27 29 30 30 31 32 34 35 36 38 39 39 39 39 39 39 39 38 38 37 37 37 36 35
13 13 13 13 13 14 15 15 16 17 19 20 21 23 24 25 26 27 28 30 31 32 33 34 35 36 38 39 40 40 41 41 41 41 41 41 41 41 41 40 40 39 38 37
15 16 16 16 16 17 18 19 19 20 21 22 24 25 26 28 29 31 32 33 34 35 36 38 39 40 40 41 42 43 43 43 43 43 43 43 43 43 42 42 42 41 41 40
18 18 18 19 19 20 21 21 22 23 24 25 27 28 30 31 32 34 35 36 37 39 40 41 42 42 43 44 45 45 45 45 45 45 45 45 44 44 43 43 42 42 42 41
21 21 22 22 22 23 23 24 25 25 27 28 29 31 33 34 35 36 37 39 40 41 43 44 44 44 46 46 47 47 47 46 46 46 45 45 44 44 43 43 43 43 43 42
25 25 25 25 25 26 26 27 27 28 30 31 33 34 36 36 37 39 40 41 42 43 45 46 47 47 48 48 48 48 48 47 47 47 47 46 45 44 44 43 44 44 43 42
28 28 28 28 28 29 29 30 31 32 33 34 35 36 38 39 40 41 42 43 44 46 47 48 49 49 49 49 49 50 49 49 48 48 48 48 47 46 45 44 44 44 44 44
31 31 31 31 31 32 33 33 34 35 36 37 37 38 39 41 42 43 44 45 47 48 49 49 50 50 50 51 51 51 51 50 50 50 49 49 48 48 48 47 45 45 45 45
33 32 32 33 34 35 35 36 36 37 38 39 40 40 42 43 44 45 47 48 49 49 50 50 51 51 51 52 52 52 51 51 52 51 50 50 49 49 48 48 47 46 47 47
34 34 34 35 36 36 37 38 38 39 40 41 42 42 44 45 46 47 49 50 50 51 51 52 52 52 52 53 53 53 53 52 52 52 51 50 49 49 48 47 46 46 47 48
36 36 36 37 37 38 38 39 39 40 42 43 44 45 46 47 48 49 50 51 52 52 53 53 53 53 54 54 54 54 54 53 52 51 50 49 49 48 48 47 46 45 45 47
37 37 38 38 38 39 40 41 42 43 44 45 46 47 48 49 50 51 52 52 53 54 54 55 55 55 55 56 55 54 53 52 51 51 50 50 49 49 48 47 46 44 44 45
39 39 40 40 41 41 42 43 44 45 46 47 49 50 51 52 52 53 53 54 54 55 55 56 56 57 56 56 55 53 52 52 51 50 49 49 48 48 48 47 46 45 44 44
41 41 42 43 43 44 45 45 46 48 49 50 51 52 53 54 54 54 55 55 56 56 57 57 58 57 57 56 55 54 53 52 50 49 49 48 48 48 47 45 45 45 44 43
43 43 44 45 45 46 47 48 49 50 52 53 54 54 55 55 56 56 56 57 58 58 59 58 58 57 56 55 54 53 51 51 50 49 49 49 47 46 45 44 43 43 43 43
44 45 46 47 48 49 50 51 52 53 54 55 55 56 56 57 57 58 58 58 58 59 59 58 57 56 56 55 53 51 50 49 49 49 48 47 45 44 43 42 41 40 40 41
47 47 48 49 50 51 52 54 54 55 55 56 57 58 58 58 58 59 59 59 59 59 58 57 56 55 54 52 51 50 50 49 48 47 45 44 42 41 40 39 38 38 38 39
49 50 51 51 53 54 55 56 56 57 57 58 58 59 59 59 59 59 58 58 58 58 57 55 54 53 51 50 48 48 48 47 45 43 42 41 39 38 37 36 36 35 34 35
53 53 54 54 55 56 57 57 58 58 59 59 59 59 59 59 58 58 58 57 57 56 54 53 52 51 49 48 47 46 45 44 43 41 40 39 37 36 34 34 33 32 31 31
56 56 57 57 58 58 58 59 59 59 60 60 59 59 58 58 57 56 56 55 54 52 51 50 50 48 47 45 44 44 43 42 41 40 38 36 34 32 32 31 30 30 28 28
58 58 58 59 59 59 59 60 60 60 60 59 58 57 57 56 55 54 53 52 50 49 48 47 46 45 44 43 42 42 41 40 38 37 35 33 31 30 29 28 27 27 26 26
59 59 59 59 59 59 59 59 59 58 58 57 55 54 54 53 52 51 49 47 47 46 45 45 44 43 42 41 41 40 38 37 36 35 32 30 28 28 26 25 25 25 25 24
Wind_Direction
178 181 181 181 194 218 245 275 282 289 292 296 297 302 303 300 298 297 296 296 298 301 301 301 301 301 301 302 302 302 303 304 303 302 301 298 297 296 296 297 297 298 298 297
200 206 211 225 247 271 290 300 301 302 304 307 307 310 312 309 304 301 299 299 299 301 302 300 299 300 301 300 300 300 301 301 301 300 300 298 296 295 293 293 293 293 292 292
228 241 252 260 279 293 301 307 309 309 309 311 310 311 313 315 311 307 303 301 301 301 303 302 301 300 300 300 300 300 299 298 297 297 297 296 295 293 291 290 290 289 288 287
246 259 267 275 283 292 298 304 307 307 308 309 308 308 310 312 312 308 304 303 302 302 303 303 302 301 300 300 300 299 298 297 296 295 294 293 292 291 288 287 287 286 286 284
255 265 273 279 285 291 296 302 304 305 306 306 307 307 308 309 310 310 307 305 304 304 304 304 304 302 301 300 300 299 298 297 296 294 292 291 290 289 287 285 283 282 281 281
262 268 274 280 286 291 295 300 303 304 305 306 306 305 306 306 307 308 307 306 305 304 303 303 303 302 301 301 300 299 299 298 296 294 292 290 289 287 285 282 281 279 278 278
266 270 276 282 285 291 294 300 302 303 304 304 305 305 305 305 306 306 305 305 304 303 302 302 301 301 301 300 300 300 299 298 296 294 292 290 288 286 284 281 279 277 275 274
269 273 278 282 285 290 294 298 300 301 302 303 304 305 305 305 305 305 305 305 304 303 303 302 301 301 300 300 300 300 299 297 296 294 292 290 288 285 283 281 279 276 274 271
270 275 279 282 286 289 293 295 297 299 300 301 303 304 305 304 304 304 304 304 304 304 303 303 302 301 301 300 300 299 299 298 296 295 292 290 288 285 283 280 278 275 272 270
271 274 278 282 285 287 290 293 296 297 299 300 302 303 304 304 304 303 303 304 304 304 304 304 303 301 301 301 300 300 299 299 298 296 293 291 288 286 283 279 277 274 271 269
271 275 278 282 285 287 290 292 294 296 298 300 301 303 304 305 304 304 303 304 304 304 304 303 303 302 301 301 301 300 300 299 298 296 294 291 288 285 282 280 276 273 270 267
271 275 278 281 284 287 289 291 293 295 297 299 300 302 303 304 304 304 304 303 304 304 304 303 303 303 302 301 301 300 300 299 297 296 294 291 288 285 282 279 276 272 270 267
272 274 277 280 283 286 288 291 293 295 296 298 300 301 303 304 304 305 305 305 304 304 304 304 303 303 302 301 301 300 299 298 297 295 293 291 288 286 283 279 275 271 268 266
273 275 278 280 283 285 288 290 292 294 296 298 299 301 302 304 305 305 305 305 305 304 304 303 304 303 303 302 302 301 300 298 296 294 293 291 289 287 284 280 276 270 267 264
274 276 279 281 283 285 288 290 292 294 296 297 298 300 302 303 305 305 306 306 306 305 304 303 304 303 303 302 302 301 300 299 297 294 292 290 289 287 285 282 277 271 266 263
275 277 279 281 284 287 289 291 292 294 296 297 298 299 301 303 304 305 306 306 306 305 305 304 304 303 303 302 301 301 300 299 298 296 292 290 289 287 285 282 278 274 268 263
276 277 279 282 285 287 289 291 293 294 296 297 298 300 301 302 304 305 305 306 306 306 305 305 304 303 303 302 301 301 300 299 297 296 294 292 290 287 285 281 278 273 268 263
276 278 281 283 285 287 289 291 293 294 296 297 298 299 301 302 303 304 304 305 305 306 305 305 304 303 303 302 301 300 300 300 298 297 296 294 291 288 284 281 277 273 269 264
277 279 281 284 286 287 289 291 293 294 296 297 298 299 301 302 303 303 304 304 305 305 305 304 304 303 302 301 301 300 300 299 298 297 296 295 292 289 285 281 277 273 270 265
278 280 283 285 287 288 290 291 293 294 296 297 298 299 300 301 302 302 303 304 304 305 305 304 304 303 302 301 301 300 299 299 298 297 297 295 293 289 285 280 277 273 269 265
280 282 284 286 287 289 290 291 293 294 295 296 298 299 300 301 301 302 302 303 304 304 304 304 304 303 303 302 301 299 299 299 298 298 297 295 292 289 285 280 276 272 268 264
281 283 284 286 287 289 290 291 292 294 295 296 298 299 299 300 301 301 302 303 303 304 304 304 304 303 303 302 301 300 299 298 297 297 296 295 292 289 285 281 277 273 267 262
283 284 285 286 288 289 290 291 293 294 295 296 297 298 299 299 300 300 300 302 302 303 303 303 303 303 302 301 300 300 300 299 297 296 296 295 293 290 286 281 278 274 268 261
284 285 286 287 289 289 290 291 292 293 294 296 297 297 297 298 299 299 300 301 302 302 302 303 303 302 301 301 301 301 300 299 297 296 294 294 293 290 287 283 279 274 267 260
283 284 285 287 287 288 289 290 291 292 293 295 295 296 296 297 298 299 299 300 300 301 301 302 302 303 302 302 301 301 300 299 298 296 294 292 290 289 288 284 279 272 266 260
282 283 285 285 286 287 288 289 290 291 292 293 294 294 295 296 297 297 298 298 299 300 301 302 302 302 302 302 301 301 301 300 299 298 295 291 288 288 287 282 277 270 264 258
282 283 284 285 285 286 287 288 289 291 292 293 293 294 294 295 295 295 296 297 298 299 301 301 301 301 301 301 301 301 301 301 300 298 295 292 288 287 285 280 275 269 262 255